sat.trackr.live / text

‹ back to catalog

LEMUR-2-SQUIRRELCOMM

NORAD 60578 · 2024-149DQ

PAYLOAD ACTIVE UNKNOWN

§ Identity

Operator
Country
US
Launch date
2024-08-16
Launch site
AFWTR
Launch vehicle
Mass (kg)
RCS (m²)

Purposes: earth_obs

External: N2YO · Heavens-Above · Gunter

§ Orbital elements

Epoch: 2026-09-19T00:55:01.611840Z

Period
95.49 min
Inclination
97.6652°
Eccentricity
0.0006684
Mean motion
15.08052674 rev/d
Perigee alt
537.5 km
Apogee alt
546.8 km
Semi-major
6,920.3 km
B*
3.0704e-4
RAAN
342.6847°
Arg perigee
92.9246°
Mean anomaly
267.2747°
Rev number
11,454

§ Raw data

LEMUR-2-SQUIRRELCOMM1 60578U 24149DQ  26262.03821310  .00004669  00000+0  30704-3 0  99932 60578  97.6652 342.6847 0006684  92.9246 267.2747 15.08052674114541

JSON: /api/v1/satellites/60578 · /tle

For live sub-satellite position, see the globe view (requires WebGL).

§ Visibility from observer

Set your observer location to see the next 7 days of passes ≥ 10°. The values pass through the URL so the page stays shareable.

No JS? Fill the form by hand. The geolocation button needs JavaScript.